owner,sensor,date,latitude,longitude,vertical_datum,sea_water_practical_salinity,qcFlag 
LUMCON,ioos:station:LUMCON:102:1,2015-09-01T05:00:00Z,29.1870,-90.6093,2.23,14.83,1111122 
LUMCON,ioos:station:LUMCON:102:1,2015-09-01T05:15:00Z,29.1870,-90.6093,2.25,14.4,1111122 
LUMCON,ioos:station:LUMCON:102:1,2015-09-01T05:30:00Z,29.1870,-90.6093,2.25,15.11,1111122 
LUMCON,ioos:station:LUMCON:102:1,2015-09-01T05:45:00Z,29.1870,-90.6093,2.26,16.03,1111122 
LUMCON,ioos:station:LUMCON:102:1,2015-09-01T06:00:00Z,29.1870,-90.6093,2.26,16.18,1111122 
LUMCON,ioos:station:LUMCON:102:1,2015-09-01T06:15:00Z,29.1870,-90.6093,2.26,16.26,1111122 
LUMCON,ioos:station:LUMCON:102:1,2015-09-01T06:30:00Z,29.1870,-90.6093,2.27,16.38,1111122 
LUMCON,ioos:station:LUMCON:102:1,2015-09-01T06:45:00Z,29.1870,-90.6093,2.28,16.02,1111122 
LUMCON,ioos:station:LUMCON:102:1,2015-09-01T07:00:00Z,29.1870,-90.6093,2.29,15.5,1111122 
LUMCON,ioos:station:LUMCON:102:1,2015-09-01T07:15:00Z,29.1870,-90.6093,2.28,15.42,1111122 
LUMCON,ioos:station:LUMCON:102:1,2015-09-01T07:30:00Z,29.1870,-90.6093,2.29,15.25,1111122 
LUMCON,ioos:station:LUMCON:102:1,2015-09-01T07:45:00Z,29.1870,-90.6093,2.29,15.5,1111122 
LUMCON,ioos:station:LUMCON:102:1,2015-09-01T08:00:00Z,29.1870,-90.6093,2.31,16.04,1111122 
LUMCON,ioos:station:LUMCON:102:1,2015-09-01T08:15:00Z,29.1870,-90.6093,2.31,16.24,1111122 
LUMCON,ioos:station:LUMCON:102:1,2015-09-01T08:30:00Z,29.1870,-90.6093,2.28,15.76,1111122 
LUMCON,ioos:station:LUMCON:102:1,2015-09-01T08:45:00Z,29.1870,-90.6093,2.29,15.82,1111122 
LUMCON,ioos:station:LUMCON:102:1,2015-09-01T09:00:00Z,29.1870,-90.6093,2.29,16.27,1111122 
LUMCON,ioos:station:LUMCON:102:1,2015-09-01T09:15:00Z,29.1870,-90.6093,2.29,16.26,1111122 
LUMCON,ioos:station:LUMCON:102:1,2015-09-01T09:30:00Z,29.1870,-90.6093,2.28,15.57,1111122 
LUMCON,ioos:station:LUMCON:102:1,2015-09-01T09:45:00Z,29.1870,-90.6093,2.26,15.8,1111122 
LUMCON,ioos:station:LUMCON:102:1,2015-09-01T10:00:00Z,29.1870,-90.6093,2.27,15.0,1111122 
LUMCON,ioos:station:LUMCON:102:1,2015-09-01T10:15:00Z,29.1870,-90.6093,2.27,15.67,1111122 
LUMCON,ioos:station:LUMCON:102:1,2015-09-01T10:30:00Z,29.1870,-90.6093,2.28,15.79,1111122 
LUMCON,ioos:station:LUMCON:102:1,2015-09-01T10:45:00Z,29.1870,-90.6093,2.27,15.93,1111122 
LUMCON,ioos:station:LUMCON:102:1,2015-09-01T11:00:00Z,29.1870,-90.6093,2.29,16.2,1111122 
LUMCON,ioos:station:LUMCON:102:1,2015-09-01T11:15:00Z,29.1870,-90.6093,2.28,16.27,1111122 
LUMCON,ioos:station:LUMCON:102:1,2015-09-01T11:30:00Z,29.1870,-90.6093,2.26,15.63,1111122 
LUMCON,ioos:station:LUMCON:102:1,2015-09-01T11:45:00Z,29.1870,-90.6093,2.24,15.25,1111122 
LUMCON,ioos:station:LUMCON:102:1,2015-09-01T12:00:00Z,29.1870,-90.6093,2.24,15.15,1111122 
LUMCON,ioos:station:LUMCON:102:1,2015-09-01T12:15:00Z,29.1870,-90.6093,2.23,15.41,1111122 
LUMCON,ioos:station:LUMCON:102:1,2015-09-01T12:30:00Z,29.1870,-90.6093,2.22,15.25,1111122 
LUMCON,ioos:station:LUMCON:102:1,2015-09-01T12:45:00Z,29.1870,-90.6093,2.23,15.0,1111122 
LUMCON,ioos:station:LUMCON:102:1,2015-09-01T13:00:00Z,29.1870,-90.6093,2.23,14.77,1111122 
LUMCON,ioos:station:LUMCON:102:1,2015-09-01T13:15:00Z,29.1870,-90.6093,2.2,14.84,1111122 
LUMCON,ioos:station:LUMCON:102:1,2015-09-01T13:30:00Z,29.1870,-90.6093,2.22,14.72,1111122 
LUMCON,ioos:station:LUMCON:102:1,2015-09-01T13:45:00Z,29.1870,-90.6093,2.2,14.56,1111122 
LUMCON,ioos:station:LUMCON:102:1,2015-09-01T14:00:00Z,29.1870,-90.6093,2.19,14.69,1111122 
LUMCON,ioos:station:LUMCON:102:1,2015-09-01T14:15:00Z,29.1870,-90.6093,2.2,14.25,1111122 
LUMCON,ioos:station:LUMCON:102:1,2015-09-01T14:30:00Z,29.1870,-90.6093,2.21,14.46,1111122 
LUMCON,ioos:station:LUMCON:102:1,2015-09-01T14:45:00Z,29.1870,-90.6093,2.2,14.76,1111122 
LUMCON,ioos:station:LUMCON:102:1,2015-09-01T15:00:00Z,29.1870,-90.6093,2.19,14.34,1111122 
LUMCON,ioos:station:LUMCON:102:1,2015-09-01T15:15:00Z,29.1870,-90.6093,2.21,14.19,1111122 
LUMCON,ioos:station:LUMCON:102:1,2015-09-01T15:30:00Z,29.1870,-90.6093,2.2,14.75,1111122 
LUMCON,ioos:station:LUMCON:102:1,2015-09-01T15:45:00Z,29.1870,-90.6093,2.21,14.45,1111122 
LUMCON,ioos:station:LUMCON:102:1,2015-09-01T16:00:00Z,29.1870,-90.6093,2.22,14.27,1111122 
LUMCON,ioos:station:LUMCON:102:1,2015-09-01T16:15:00Z,29.1870,-90.6093,2.23,14.1,1111122 
LUMCON,ioos:station:LUMCON:102:1,2015-09-01T16:30:00Z,29.1870,-90.6093,2.22,13.57,1111122 
LUMCON,ioos:station:LUMCON:102:1,2015-09-01T16:45:00Z,29.1870,-90.6093,2.22,13.91,1111122 
LUMCON,ioos:station:LUMCON:102:1,2015-09-01T17:00:00Z,29.1870,-90.6093,2.23,14.08,1111122 
LUMCON,ioos:station:LUMCON:102:1,2015-09-01T17:15:00Z,29.1870,-90.6093,2.23,14.23,1111122 
LUMCON,ioos:station:LUMCON:102:1,2015-09-01T17:30:00Z,29.1870,-90.6093,2.23,13.92,1111122 
LUMCON,ioos:station:LUMCON:102:1,2015-09-01T17:45:00Z,29.1870,-90.6093,2.24,14.1,1111122 
LUMCON,ioos:station:LUMCON:102:1,2015-09-01T18:00:00Z,29.1870,-90.6093,2.25,14.29,1111122 
LUMCON,ioos:station:LUMCON:102:1,2015-09-01T18:15:00Z,29.1870,-90.6093,2.25,15.12,1111122 
LUMCON,ioos:station:LUMCON:102:1,2015-09-01T18:30:00Z,29.1870,-90.6093,2.27,14.87,1111122 
LUMCON,ioos:station:LUMCON:102:1,2015-09-01T18:45:00Z,29.1870,-90.6093,2.27,14.9,1111122 
LUMCON,ioos:station:LUMCON:102:1,2015-09-01T19:00:00Z,29.1870,-90.6093,2.28,15.07,1111122 
LUMCON,ioos:station:LUMCON:102:1,2015-09-01T19:15:00Z,29.1870,-90.6093,2.29,15.19,1111122 
LUMCON,ioos:station:LUMCON:102:1,2015-09-01T19:30:00Z,29.1870,-90.6093,2.3,15.38,1111122 
LUMCON,ioos:station:LUMCON:102:1,2015-09-01T19:45:00Z,29.1870,-90.6093,2.3,15.24,1111122 
LUMCON,ioos:station:LUMCON:102:1,2015-09-01T20:00:00Z,29.1870,-90.6093,2.3,15.47,1111122 
LUMCON,ioos:station:LUMCON:102:1,2015-09-01T20:15:00Z,29.1870,-90.6093,2.32,14.97,1111122 
LUMCON,ioos:station:LUMCON:102:1,2015-09-01T20:30:00Z,29.1870,-90.6093,2.32,15.35,1111122 
LUMCON,ioos:station:LUMCON:102:1,2015-09-01T20:45:00Z,29.1870,-90.6093,2.34,15.75,1111122 
LUMCON,ioos:station:LUMCON:102:1,2015-09-01T21:00:00Z,29.1870,-90.6093,2.34,15.58,1111122 
LUMCON,ioos:station:LUMCON:102:1,2015-09-01T21:15:00Z,29.1870,-90.6093,2.35,16.0,1111122 
LUMCON,ioos:station:LUMCON:102:1,2015-09-01T21:30:00Z,29.1870,-90.6093,2.34,16.17,1111122 
LUMCON,ioos:station:LUMCON:102:1,2015-09-01T21:45:00Z,29.1870,-90.6093,2.35,16.07,1111122 
LUMCON,ioos:station:LUMCON:102:1,2015-09-01T22:00:00Z,29.1870,-90.6093,2.36,16.01,1111122 
LUMCON,ioos:station:LUMCON:102:1,2015-09-01T22:15:00Z,29.1870,-90.6093,2.35,16.89,1111122 
LUMCON,ioos:station:LUMCON:102:1,2015-09-01T22:30:00Z,29.1870,-90.6093,2.35,16.41,1111122 
LUMCON,ioos:station:LUMCON:102:1,2015-09-01T22:45:00Z,29.1870,-90.6093,2.35,16.94,1111122 
LUMCON,ioos:station:LUMCON:102:1,2015-09-01T23:00:00Z,29.1870,-90.6093,2.36,17.0,1111122 
LUMCON,ioos:station:LUMCON:102:1,2015-09-01T23:15:00Z,29.1870,-90.6093,2.36,16.57,1111122 
LUMCON,ioos:station:LUMCON:102:1,2015-09-01T23:30:00Z,29.1870,-90.6093,2.34,16.64,1111122 
LUMCON,ioos:station:LUMCON:102:1,2015-09-01T23:45:00Z,29.1870,-90.6093,2.34,16.91,1111122 
LUMCON,ioos:station:LUMCON:102:1,2015-09-02T05:00:00Z,29.1870,-90.6093,2.34,17.59,1111122 
LUMCON,ioos:station:LUMCON:102:1,2015-09-02T05:15:00Z,29.1870,-90.6093,2.33,17.34,1111122 
LUMCON,ioos:station:LUMCON:102:1,2015-09-02T05:30:00Z,29.1870,-90.6093,2.33,17.44,1111122 
LUMCON,ioos:station:LUMCON:102:1,2015-09-02T05:45:00Z,29.1870,-90.6093,2.33,17.77,1111122 
LUMCON,ioos:station:LUMCON:102:1,2015-09-02T06:00:00Z,29.1870,-90.6093,2.33,18.27,1111122 
LUMCON,ioos:station:LUMCON:102:1,2015-09-02T06:15:00Z,29.1870,-90.6093,2.34,18.27,1111122 
LUMCON,ioos:station:LUMCON:102:1,2015-09-02T06:30:00Z,29.1870,-90.6093,2.32,17.2,1111122 
LUMCON,ioos:station:LUMCON:102:1,2015-09-02T06:45:00Z,29.1870,-90.6093,2.33,17.4,1111122 
LUMCON,ioos:station:LUMCON:102:1,2015-09-02T07:00:00Z,29.1870,-90.6093,2.33,17.82,1111122 
LUMCON,ioos:station:LUMCON:102:1,2015-09-02T07:15:00Z,29.1870,-90.6093,2.34,17.73,1111122 
LUMCON,ioos:station:LUMCON:102:1,2015-09-02T07:30:00Z,29.1870,-90.6093,2.32,17.9,1111122 
LUMCON,ioos:station:LUMCON:102:1,2015-09-02T07:45:00Z,29.1870,-90.6093,2.35,17.97,1111122 
LUMCON,ioos:station:LUMCON:102:1,2015-09-02T08:00:00Z,29.1870,-90.6093,2.34,17.93,1111122 
LUMCON,ioos:station:LUMCON:102:1,2015-09-02T08:15:00Z,29.1870,-90.6093,2.34,17.81,1111122 
LUMCON,ioos:station:LUMCON:102:1,2015-09-02T08:30:00Z,29.1870,-90.6093,2.33,18.06,1111122 
LUMCON,ioos:station:LUMCON:102:1,2015-09-02T08:45:00Z,29.1870,-90.6093,2.33,17.77,1111122 
LUMCON,ioos:station:LUMCON:102:1,2015-09-02T09:00:00Z,29.1870,-90.6093,2.34,17.88,1111122 
LUMCON,ioos:station:LUMCON:102:1,2015-09-02T09:15:00Z,29.1870,-90.6093,2.33,18.13,1111122 
LUMCON,ioos:station:LUMCON:102:1,2015-09-02T09:30:00Z,29.1870,-90.6093,2.33,18.06,1111122 
LUMCON,ioos:station:LUMCON:102:1,2015-09-02T09:45:00Z,29.1870,-90.6093,2.33,17.92,1111122 
LUMCON,ioos:station:LUMCON:102:1,2015-09-02T10:00:00Z,29.1870,-90.6093,2.33,17.56,1111122 
LUMCON,ioos:station:LUMCON:102:1,2015-09-02T10:15:00Z,29.1870,-90.6093,2.32,17.95,1111122 
LUMCON,ioos:station:LUMCON:102:1,2015-09-02T10:30:00Z,29.1870,-90.6093,2.31,17.52,1111122 
LUMCON,ioos:station:LUMCON:102:1,2015-09-02T10:45:00Z,29.1870,-90.6093,2.29,17.8,1111122 
LUMCON,ioos:station:LUMCON:102:1,2015-09-02T11:00:00Z,29.1870,-90.6093,2.29,17.85,1111122 
LUMCON,ioos:station:LUMCON:102:1,2015-09-02T11:15:00Z,29.1870,-90.6093,2.29,18.05,1111122 
LUMCON,ioos:station:LUMCON:102:1,2015-09-02T11:30:00Z,29.1870,-90.6093,2.28,17.68,1111122 
LUMCON,ioos:station:LUMCON:102:1,2015-09-02T11:45:00Z,29.1870,-90.6093,2.27,17.13,1111122 
LUMCON,ioos:station:LUMCON:102:1,2015-09-02T12:00:00Z,29.1870,-90.6093,2.27,17.21,1111122 
LUMCON,ioos:station:LUMCON:102:1,2015-09-02T12:15:00Z,29.1870,-90.6093,2.26,17.07,1111122 
LUMCON,ioos:station:LUMCON:102:1,2015-09-02T12:30:00Z,29.1870,-90.6093,2.27,16.89,1111122 
LUMCON,ioos:station:LUMCON:102:1,2015-09-02T12:45:00Z,29.1870,-90.6093,2.25,17.22,1111122 
LUMCON,ioos:station:LUMCON:102:1,2015-09-02T13:00:00Z,29.1870,-90.6093,2.2,16.86,1111122 
LUMCON,ioos:station:LUMCON:102:1,2015-09-02T13:15:00Z,29.1870,-90.6093,2.18,16.41,1111122 
LUMCON,ioos:station:LUMCON:102:1,2015-09-02T13:30:00Z,29.1870,-90.6093,2.18,16.04,1111122 
LUMCON,ioos:station:LUMCON:102:1,2015-09-02T13:45:00Z,29.1870,-90.6093,2.17,15.86,1111122 
LUMCON,ioos:station:LUMCON:102:1,2015-09-02T14:00:00Z,29.1870,-90.6093,2.16,15.54,1111122 
LUMCON,ioos:station:LUMCON:102:1,2015-09-02T14:15:00Z,29.1870,-90.6093,2.17,15.74,1111122 
LUMCON,ioos:station:LUMCON:102:1,2015-09-02T14:30:00Z,29.1870,-90.6093,2.18,15.81,1111122 
LUMCON,ioos:station:LUMCON:102:1,2015-09-02T14:45:00Z,29.1870,-90.6093,2.17,15.84,1111122 
LUMCON,ioos:station:LUMCON:102:1,2015-09-02T15:00:00Z,29.1870,-90.6093,2.15,15.58,1111122 
LUMCON,ioos:station:LUMCON:102:1,2015-09-02T15:15:00Z,29.1870,-90.6093,2.15,15.6,1111122 
LUMCON,ioos:station:LUMCON:102:1,2015-09-02T15:30:00Z,29.1870,-90.6093,2.16,14.95,1111122 
LUMCON,ioos:station:LUMCON:102:1,2015-09-02T15:45:00Z,29.1870,-90.6093,2.17,14.68,1111122 
LUMCON,ioos:station:LUMCON:102:1,2015-09-02T16:00:00Z,29.1870,-90.6093,2.14,14.75,1111122 
LUMCON,ioos:station:LUMCON:102:1,2015-09-02T16:15:00Z,29.1870,-90.6093,2.17,14.78,1111122 
LUMCON,ioos:station:LUMCON:102:1,2015-09-02T16:30:00Z,29.1870,-90.6093,2.2,14.92,1111122 
LUMCON,ioos:station:LUMCON:102:1,2015-09-02T16:45:00Z,29.1870,-90.6093,2.17,14.94,1111122 
LUMCON,ioos:station:LUMCON:102:1,2015-09-02T17:00:00Z,29.1870,-90.6093,2.15,14.53,1111122 
LUMCON,ioos:station:LUMCON:102:1,2015-09-02T17:15:00Z,29.1870,-90.6093,2.18,14.77,1111122 
LUMCON,ioos:station:LUMCON:102:1,2015-09-02T17:30:00Z,29.1870,-90.6093,2.19,14.56,1111122 
LUMCON,ioos:station:LUMCON:102:1,2015-09-02T17:45:00Z,29.1870,-90.6093,2.17,14.67,1111122 
LUMCON,ioos:station:LUMCON:102:1,2015-09-02T18:00:00Z,29.1870,-90.6093,2.16,14.44,1111122 
LUMCON,ioos:station:LUMCON:102:1,2015-09-02T18:15:00Z,29.1870,-90.6093,2.15,14.52,1111122 
LUMCON,ioos:station:LUMCON:102:1,2015-09-02T18:30:00Z,29.1870,-90.6093,2.14,14.48,1111122 
LUMCON,ioos:station:LUMCON:102:1,2015-09-02T18:45:00Z,29.1870,-90.6093,2.18,14.33,1111122 
LUMCON,ioos:station:LUMCON:102:1,2015-09-02T19:00:00Z,29.1870,-90.6093,2.17,14.77,1111122 
LUMCON,ioos:station:LUMCON:102:1,2015-09-02T19:15:00Z,29.1870,-90.6093,2.17,14.89,1111122 
LUMCON,ioos:station:LUMCON:102:1,2015-09-02T19:30:00Z,29.1870,-90.6093,2.17,14.02,1111122 
LUMCON,ioos:station:LUMCON:102:1,2015-09-02T19:45:00Z,29.1870,-90.6093,2.18,14.59,1111122 
LUMCON,ioos:station:LUMCON:102:1,2015-09-02T20:00:00Z,29.1870,-90.6093,2.17,13.67,1111122 
LUMCON,ioos:station:LUMCON:102:1,2015-09-02T20:15:00Z,29.1870,-90.6093,2.18,13.9,1111122 
LUMCON,ioos:station:LUMCON:102:1,2015-09-02T20:30:00Z,29.1870,-90.6093,2.2,14.16,1111122 
LUMCON,ioos:station:LUMCON:102:1,2015-09-02T20:45:00Z,29.1870,-90.6093,2.21,14.93,1111122 
LUMCON,ioos:station:LUMCON:102:1,2015-09-02T21:00:00Z,29.1870,-90.6093,2.23,15.06,1111122 
LUMCON,ioos:station:LUMCON:102:1,2015-09-02T21:15:00Z,29.1870,-90.6093,2.24,14.8,1111122 
LUMCON,ioos:station:LUMCON:102:1,2015-09-02T21:30:00Z,29.1870,-90.6093,2.23,15.01,1111122 
LUMCON,ioos:station:LUMCON:102:1,2015-09-02T21:45:00Z,29.1870,-90.6093,2.26,15.13,1111122 
LUMCON,ioos:station:LUMCON:102:1,2015-09-02T22:00:00Z,29.1870,-90.6093,2.26,15.18,1111122 
LUMCON,ioos:station:LUMCON:102:1,2015-09-02T22:15:00Z,29.1870,-90.6093,2.28,14.15,1111122 
LUMCON,ioos:station:LUMCON:102:1,2015-09-02T22:30:00Z,29.1870,-90.6093,2.27,15.17,1111122 
LUMCON,ioos:station:LUMCON:102:1,2015-09-02T22:45:00Z,29.1870,-90.6093,2.28,15.36,1111122 
LUMCON,ioos:station:LUMCON:102:1,2015-09-02T23:00:00Z,29.1870,-90.6093,2.3,15.5,1111122 
LUMCON,ioos:station:LUMCON:102:1,2015-09-02T23:15:00Z,29.1870,-90.6093,2.3,15.63,1111122 
LUMCON,ioos:station:LUMCON:102:1,2015-09-02T23:30:00Z,29.1870,-90.6093,2.29,15.76,1111122 
LUMCON,ioos:station:LUMCON:102:1,2015-09-02T23:45:00Z,29.1870,-90.6093,2.3,15.94,1111122 
LUMCON,ioos:station:LUMCON:102:1,2015-09-03T05:00:00Z,29.1870,-90.6093,2.4,16.68,1111122 
LUMCON,ioos:station:LUMCON:102:1,2015-09-03T05:15:00Z,29.1870,-90.6093,2.4,17.23,1111122 
LUMCON,ioos:station:LUMCON:102:1,2015-09-03T05:30:00Z,29.1870,-90.6093,2.39,16.36,1111122 
LUMCON,ioos:station:LUMCON:102:1,2015-09-03T05:45:00Z,29.1870,-90.6093,2.39,16.78,1111122 
LUMCON,ioos:station:LUMCON:102:1,2015-09-03T06:00:00Z,29.1870,-90.6093,2.38,17.01,1111122 
LUMCON,ioos:station:LUMCON:102:1,2015-09-03T06:15:00Z,29.1870,-90.6093,2.38,16.86,1111122 
LUMCON,ioos:station:LUMCON:102:1,2015-09-03T06:30:00Z,29.1870,-90.6093,2.39,17.19,1111122 
LUMCON,ioos:station:LUMCON:102:1,2015-09-03T06:45:00Z,29.1870,-90.6093,2.39,17.19,1111122 
LUMCON,ioos:station:LUMCON:102:1,2015-09-03T07:00:00Z,29.1870,-90.6093,2.39,17.38,1111122 
LUMCON,ioos:station:LUMCON:102:1,2015-09-03T07:15:00Z,29.1870,-90.6093,2.38,17.38,1111122 
LUMCON,ioos:station:LUMCON:102:1,2015-09-03T07:30:00Z,29.1870,-90.6093,2.38,17.49,1111122 
LUMCON,ioos:station:LUMCON:102:1,2015-09-03T07:45:00Z,29.1870,-90.6093,2.39,17.45,1111122 
LUMCON,ioos:station:LUMCON:102:1,2015-09-03T08:00:00Z,29.1870,-90.6093,2.38,17.48,1111122 
LUMCON,ioos:station:LUMCON:102:1,2015-09-03T08:15:00Z,29.1870,-90.6093,2.4,17.39,1111122 
LUMCON,ioos:station:LUMCON:102:1,2015-09-03T08:30:00Z,29.1870,-90.6093,2.4,17.16,1111122 
LUMCON,ioos:station:LUMCON:102:1,2015-09-03T08:45:00Z,29.1870,-90.6093,2.4,16.91,1111122 
LUMCON,ioos:station:LUMCON:102:1,2015-09-03T09:00:00Z,29.1870,-90.6093,2.39,17.15,1111122 
LUMCON,ioos:station:LUMCON:102:1,2015-09-03T09:15:00Z,29.1870,-90.6093,2.38,17.14,1111122 
LUMCON,ioos:station:LUMCON:102:1,2015-09-03T09:30:00Z,29.1870,-90.6093,2.39,17.13,1111122 
LUMCON,ioos:station:LUMCON:102:1,2015-09-03T09:45:00Z,29.1870,-90.6093,2.39,17.41,1111122 
LUMCON,ioos:station:LUMCON:102:1,2015-09-03T10:00:00Z,29.1870,-90.6093,2.39,16.81,1111122 
LUMCON,ioos:station:LUMCON:102:1,2015-09-03T10:15:00Z,29.1870,-90.6093,2.39,17.64,1111122 
LUMCON,ioos:station:LUMCON:102:1,2015-09-03T10:30:00Z,29.1870,-90.6093,2.38,17.05,1111122 
LUMCON,ioos:station:LUMCON:102:1,2015-09-03T10:45:00Z,29.1870,-90.6093,2.39,17.58,1111122 
LUMCON,ioos:station:LUMCON:102:1,2015-09-03T11:00:00Z,29.1870,-90.6093,2.36,17.52,1111122 
LUMCON,ioos:station:LUMCON:102:1,2015-09-03T11:15:00Z,29.1870,-90.6093,2.35,17.6,1111122 
LUMCON,ioos:station:LUMCON:102:1,2015-09-03T11:30:00Z,29.1870,-90.6093,2.35,17.52,1111122 
LUMCON,ioos:station:LUMCON:102:1,2015-09-03T11:45:00Z,29.1870,-90.6093,2.35,16.38,1111122 
LUMCON,ioos:station:LUMCON:102:1,2015-09-03T12:00:00Z,29.1870,-90.6093,2.34,17.11,1111122 
LUMCON,ioos:station:LUMCON:102:1,2015-09-03T12:15:00Z,29.1870,-90.6093,2.33,16.79,1111122 
LUMCON,ioos:station:LUMCON:102:1,2015-09-03T12:30:00Z,29.1870,-90.6093,2.32,17.02,1111122 
LUMCON,ioos:station:LUMCON:102:1,2015-09-03T12:45:00Z,29.1870,-90.6093,2.31,16.42,1111122 
LUMCON,ioos:station:LUMCON:102:1,2015-09-03T13:00:00Z,29.1870,-90.6093,2.31,16.18,1111122 
LUMCON,ioos:station:LUMCON:102:1,2015-09-03T13:15:00Z,29.1870,-90.6093,2.29,16.7,1111122 
LUMCON,ioos:station:LUMCON:102:1,2015-09-03T13:30:00Z,29.1870,-90.6093,2.28,16.05,1111122 
LUMCON,ioos:station:LUMCON:102:1,2015-09-03T13:45:00Z,29.1870,-90.6093,2.3,16.35,1111122 
LUMCON,ioos:station:LUMCON:102:1,2015-09-03T14:00:00Z,29.1870,-90.6093,2.26,16.07,1111122 
LUMCON,ioos:station:LUMCON:102:1,2015-09-03T14:15:00Z,29.1870,-90.6093,2.24,15.42,1111122 
LUMCON,ioos:station:LUMCON:102:1,2015-09-03T14:30:00Z,29.1870,-90.6093,2.23,16.02,1111122 
LUMCON,ioos:station:LUMCON:102:1,2015-09-03T14:45:00Z,29.1870,-90.6093,2.23,15.99,1111122 
LUMCON,ioos:station:LUMCON:102:1,2015-09-03T15:00:00Z,29.1870,-90.6093,2.22,15.52,1111122 
LUMCON,ioos:station:LUMCON:102:1,2015-09-03T15:15:00Z,29.1870,-90.6093,2.2,15.61,1111122 
LUMCON,ioos:station:LUMCON:102:1,2015-09-03T15:30:00Z,29.1870,-90.6093,2.19,14.89,1111122 
LUMCON,ioos:station:LUMCON:102:1,2015-09-03T15:45:00Z,29.1870,-90.6093,2.2,14.68,1111122 
LUMCON,ioos:station:LUMCON:102:1,2015-09-03T16:00:00Z,29.1870,-90.6093,2.18,14.1,1111122 
LUMCON,ioos:station:LUMCON:102:1,2015-09-03T16:15:00Z,29.1870,-90.6093,2.17,14.29,1111122 
LUMCON,ioos:station:LUMCON:102:1,2015-09-03T16:30:00Z,29.1870,-90.6093,2.16,13.95,1111122 
LUMCON,ioos:station:LUMCON:102:1,2015-09-03T16:45:00Z,29.1870,-90.6093,2.16,14.26,1111122 
LUMCON,ioos:station:LUMCON:102:1,2015-09-03T17:00:00Z,29.1870,-90.6093,2.16,14.3,1111122 
LUMCON,ioos:station:LUMCON:102:1,2015-09-03T17:15:00Z,29.1870,-90.6093,2.15,14.2,1111122 
LUMCON,ioos:station:LUMCON:102:1,2015-09-03T17:30:00Z,29.1870,-90.6093,2.14,13.99,1111122 
LUMCON,ioos:station:LUMCON:102:1,2015-09-03T17:45:00Z,29.1870,-90.6093,2.14,13.8,1111122 
LUMCON,ioos:station:LUMCON:102:1,2015-09-03T18:00:00Z,29.1870,-90.6093,2.15,14.23,1111122 
LUMCON,ioos:station:LUMCON:102:1,2015-09-03T18:15:00Z,29.1870,-90.6093,2.14,14.54,1111122 
LUMCON,ioos:station:LUMCON:102:1,2015-09-03T18:30:00Z,29.1870,-90.6093,2.14,13.7,1111122 
LUMCON,ioos:station:LUMCON:102:1,2015-09-03T18:45:00Z,29.1870,-90.6093,2.14,13.54,1111122 
LUMCON,ioos:station:LUMCON:102:1,2015-09-03T19:00:00Z,29.1870,-90.6093,2.14,13.59,1111122 
LUMCON,ioos:station:LUMCON:102:1,2015-09-03T19:15:00Z,29.1870,-90.6093,2.13,13.43,1111122 
LUMCON,ioos:station:LUMCON:102:1,2015-09-03T19:30:00Z,29.1870,-90.6093,2.12,13.3,1111122 
LUMCON,ioos:station:LUMCON:102:1,2015-09-03T19:45:00Z,29.1870,-90.6093,2.13,13.28,1111122 
LUMCON,ioos:station:LUMCON:102:1,2015-09-03T20:00:00Z,29.1870,-90.6093,2.12,13.26,1111122 
LUMCON,ioos:station:LUMCON:102:1,2015-09-03T20:15:00Z,29.1870,-90.6093,2.13,13.7,1111122 
LUMCON,ioos:station:LUMCON:102:1,2015-09-03T20:30:00Z,29.1870,-90.6093,2.12,14.25,1111122 
LUMCON,ioos:station:LUMCON:102:1,2015-09-03T20:45:00Z,29.1870,-90.6093,2.13,14.56,1111122 
LUMCON,ioos:station:LUMCON:102:1,2015-09-03T21:00:00Z,29.1870,-90.6093,2.14,14.11,1111122 
LUMCON,ioos:station:LUMCON:102:1,2015-09-03T21:15:00Z,29.1870,-90.6093,2.15,13.91,1111122 
LUMCON,ioos:station:LUMCON:102:1,2015-09-03T21:30:00Z,29.1870,-90.6093,2.16,14.11,1111122 
LUMCON,ioos:station:LUMCON:102:1,2015-09-03T21:45:00Z,29.1870,-90.6093,2.17,14.16,1111122 
LUMCON,ioos:station:LUMCON:102:1,2015-09-03T22:00:00Z,29.1870,-90.6093,2.18,14.15,1111122 
LUMCON,ioos:station:LUMCON:102:1,2015-09-03T22:15:00Z,29.1870,-90.6093,2.18,14.35,1111122 
LUMCON,ioos:station:LUMCON:102:1,2015-09-03T22:30:00Z,29.1870,-90.6093,2.19,13.58,1111122 
LUMCON,ioos:station:LUMCON:102:1,2015-09-03T22:45:00Z,29.1870,-90.6093,2.2,12.93,1111122 
LUMCON,ioos:station:LUMCON:102:1,2015-09-03T23:00:00Z,29.1870,-90.6093,2.21,12.9,1111122 
LUMCON,ioos:station:LUMCON:102:1,2015-09-03T23:15:00Z,29.1870,-90.6093,2.22,13.58,1111122 
LUMCON,ioos:station:LUMCON:102:1,2015-09-03T23:30:00Z,29.1870,-90.6093,2.23,13.45,1111122 
LUMCON,ioos:station:LUMCON:102:1,2015-09-03T23:45:00Z,29.1870,-90.6093,2.25,13.55,1111122 
LUMCON,ioos:station:LUMCON:102:1,2015-09-04T05:00:00Z,29.1870,-90.6093,2.38,15.16,1111122 
LUMCON,ioos:station:LUMCON:102:1,2015-09-04T05:15:00Z,29.1870,-90.6093,2.38,15.48,1111122 
LUMCON,ioos:station:LUMCON:102:1,2015-09-04T05:30:00Z,29.1870,-90.6093,2.39,15.49,1111122 
LUMCON,ioos:station:LUMCON:102:1,2015-09-04T05:45:00Z,29.1870,-90.6093,2.39,15.52,1111122 
LUMCON,ioos:station:LUMCON:102:1,2015-09-04T06:00:00Z,29.1870,-90.6093,2.39,15.38,1111122 
LUMCON,ioos:station:LUMCON:102:1,2015-09-04T06:15:00Z,29.1870,-90.6093,2.39,15.96,1111122 
LUMCON,ioos:station:LUMCON:102:1,2015-09-04T06:30:00Z,29.1870,-90.6093,2.4,16.04,1111122 
LUMCON,ioos:station:LUMCON:102:1,2015-09-04T06:45:00Z,29.1870,-90.6093,2.4,16.02,1111122 
LUMCON,ioos:station:LUMCON:102:1,2015-09-04T07:00:00Z,29.1870,-90.6093,2.4,16.2,1111122 
LUMCON,ioos:station:LUMCON:102:1,2015-09-04T07:15:00Z,29.1870,-90.6093,2.4,16.24,1111122 
LUMCON,ioos:station:LUMCON:102:1,2015-09-04T07:30:00Z,29.1870,-90.6093,2.4,16.7,1111122 
LUMCON,ioos:station:LUMCON:102:1,2015-09-04T07:45:00Z,29.1870,-90.6093,2.4,16.49,1111122 
LUMCON,ioos:station:LUMCON:102:1,2015-09-04T08:00:00Z,29.1870,-90.6093,2.4,16.54,1111122 
LUMCON,ioos:station:LUMCON:102:1,2015-09-04T08:15:00Z,29.1870,-90.6093,2.41,16.44,1111122 
LUMCON,ioos:station:LUMCON:102:1,2015-09-04T08:30:00Z,29.1870,-90.6093,2.4,16.26,1111122 
LUMCON,ioos:station:LUMCON:102:1,2015-09-04T08:45:00Z,29.1870,-90.6093,2.39,16.38,1111122 
LUMCON,ioos:station:LUMCON:102:1,2015-09-04T09:00:00Z,29.1870,-90.6093,2.4,16.19,1111122 
LUMCON,ioos:station:LUMCON:102:1,2015-09-04T09:15:00Z,29.1870,-90.6093,2.38,16.29,1111122 
LUMCON,ioos:station:LUMCON:102:1,2015-09-04T09:30:00Z,29.1870,-90.6093,2.38,16.66,1111122 
LUMCON,ioos:station:LUMCON:102:1,2015-09-04T09:45:00Z,29.1870,-90.6093,2.37,16.61,1111122 
LUMCON,ioos:station:LUMCON:102:1,2015-09-04T10:00:00Z,29.1870,-90.6093,2.36,16.5,1111122 
LUMCON,ioos:station:LUMCON:102:1,2015-09-04T10:15:00Z,29.1870,-90.6093,2.37,16.69,1111122 
LUMCON,ioos:station:LUMCON:102:1,2015-09-04T10:30:00Z,29.1870,-90.6093,2.37,16.03,1111122 
LUMCON,ioos:station:LUMCON:102:1,2015-09-04T10:45:00Z,29.1870,-90.6093,2.36,16.05,1111122 
LUMCON,ioos:station:LUMCON:102:1,2015-09-04T11:00:00Z,29.1870,-90.6093,2.35,16.73,1111122 
LUMCON,ioos:station:LUMCON:102:1,2015-09-04T11:15:00Z,29.1870,-90.6093,2.33,16.96,1111122 
LUMCON,ioos:station:LUMCON:102:1,2015-09-04T11:30:00Z,29.1870,-90.6093,2.33,16.19,1111122 
LUMCON,ioos:station:LUMCON:102:1,2015-09-04T11:45:00Z,29.1870,-90.6093,2.31,16.3,1111122 
LUMCON,ioos:station:LUMCON:102:1,2015-09-04T12:00:00Z,29.1870,-90.6093,2.32,15.91,1111122 
LUMCON,ioos:station:LUMCON:102:1,2015-09-04T12:15:00Z,29.1870,-90.6093,2.31,15.76,1111122 
LUMCON,ioos:station:LUMCON:102:1,2015-09-04T12:30:00Z,29.1870,-90.6093,2.29,15.55,1111122 
LUMCON,ioos:station:LUMCON:102:1,2015-09-04T12:45:00Z,29.1870,-90.6093,2.28,15.2,1111122 
LUMCON,ioos:station:LUMCON:102:1,2015-09-04T13:00:00Z,29.1870,-90.6093,2.28,15.7,1111122 
LUMCON,ioos:station:LUMCON:102:1,2015-09-04T13:15:00Z,29.1870,-90.6093,2.25,15.62,1111122 
LUMCON,ioos:station:LUMCON:102:1,2015-09-04T13:30:00Z,29.1870,-90.6093,2.24,15.58,1111122 